Hourly Data Report for September 03, 2015

EUREKA CLIMATE
NUNAVUT

79°59'21.000" N
85°56'02.000" W
10.00 m
2401199
71613
NEK

Download Data

Hourly Data (September 2015)
Hourly Data Report for September 3, 2015
TIME
LST
Temp Definition
°C
Dew Point Definition
°C
Rel Hum Definition
%
Precip. Amount Definition
mm

Wind Dir Definition
10's deg

Wind Spd Definition
km/h
Visibility Definition
km
Stn Press Definition
kPa
Hmdx Definition


Wind Chill Definition


Weather Definition


00:00 0.0 -4.2 73 0.0 11 15   102.01   -4 LegendNANA
01:00 -1.0 -3.6 82 0.0 11 19   102.01   -6 LegendNANA
02:00 -1.5 -4.4 81 0.0 10 15   102.06   -6 LegendNANA
03:00 -1.9 -4.1 85 0.0 10 16   102.07   -7 LegendNANA
04:00 -1.0 -3.7 82 0.0 10 11   102.09   -5 LegendNANA
05:00 -1.2 -3.4 85 0.0 11 14   102.09   -6 LegendNANA
06:00 0.3 -2.8 80 0.0 11 14   102.12     LegendNANA
07:00 1.0 -2.2 80 0.0 12 21   102.09     LegendNANA
08:00 1.6 -1.4 81 0.0 12 27   102.08     LegendNANA
09:00 1.8 -1.8 77 0.0 15 25   102.09     LegendNANA
10:00 2.2 -2.3 72 0.0 15 26   102.03     LegendNANA
11:00 2.0 -1.4 78 0.0 15 21   102.02     LegendNANA
12:00 2.6 -1.3 76 0.0 15 19   101.99     LegendNANA
13:00 2.7 -1.0 77 0.0 16 22   101.95     LegendNANA
14:00 2.9 -1.5 73 0.0 15 25   101.93     LegendNANA
15:00 3.1 -1.8 70 0.0 14 22   101.92     LegendNANA
16:00 3.2 -2.1 68 0.0 13 23   101.87     LegendNANA
17:00 3.4 -2.6 65 0.0 12 19   101.83     LegendNANA
18:00 3.0 -2.3 68 0.0 12 20   101.79     LegendNANA
19:00 2.8 -2.5 69 0.0 12 19   101.74     LegendNANA
20:00 2.5 -2.4 70 0.0 14 18   101.72     LegendNANA
21:00 1.6 -2.0 77 0.0 12 18   101.66     LegendNANA
22:00 2.2 -2.1 73 0.0 14 24   101.59     LegendNANA
23:00 2.0 -1.9 75 0.0 14 18   101.56     LegendNANA

Notes on Data Quality.

Legend

  • E = Estimated
  • M = Missing
  • NA = Not Available*
  • [empty] = Indicates an unobserved value
Date modified: